User: anonymous
Location: Unspecified
(0.0000°N, 0.0000°E)
Time: 08:25:25
(UTC+02:00)
Language:

Cosmos 1892 Rocket - Orbit

View from above orbital plane
View from above orbital plane
View from above satellite
View from above satellite

Ground track
Ground track

The orbit data is extracted from the following two-line orbital elements,

1 18422U 87088B   14274.80587546  .00000584  00000-0  69577-4 0  3707
2 18422 082.5151 023.7459 0021332 098.0231 015.8375 14.82451223455202
Epoch (UTC): 01 October 2014 19:20:27
Eccentricity: 0.0021332
inclination: 82.5151°
perigee height: 606 km
apogee height: 636 km
right ascension of ascending node: 23.7459°
argument of perigee: 98.0231°
revolutions per day: 14.82451223
mean anomaly at epoch: 15.8375°
orbit number at epoch: 45520

The dashed part of the orbit path shows where the satellite is in the earth's shadow,  

DLR